Location: Schommer Observatory
(40.5200°N, 74.4500°W)
Time: 12:40:03
(UTC-05:00)

N. Korean satellite - Visible Passes

Search period start: 12 November 2018 00:00
Search period end: 22 November 2018 00:00
Orbit: 457 x 511 km, 97.2° (Epoch: 12 November)

Date Brightness Start Highest point End Pass type
(mag) Time Alt. Az. Time Alt. Az. Time Alt. Az.
12 Nov 10.1 18:37:25 10° WSW 18:39:12 13° W 18:40:58 10° WNW visible
13 Nov 7.6 06:02:34 10° NNE 06:05:56 49° E 06:09:15 10° S visible
13 Nov 9.0 18:11:29 10° SSW 18:14:34 26° W 18:17:38 10° NW visible
14 Nov 9.3 05:38:33 10° NE 05:41:21 23° E 05:44:07 10° SSE visible
14 Nov 7.4 17:46:26 10° S 17:50:01 54° W 17:53:34 10° NNW visible
15 Nov 10.2 05:15:34 10° ENE 05:16:41 11° E 05:17:47 10° ESE visible
15 Nov 6.5 17:21:55 10° SSE 17:25:32 69° ENE 17:29:06 10° N visible
16 Nov 9.9 18:32:34 10° SW 18:34:39 15° W 18:36:42 10° WNW visible
17 Nov 7.9 05:58:04 10° NNE 06:01:21 42° E 06:04:38 10° S visible
17 Nov 8.8 18:06:50 10° SSW 18:10:01 28° W 18:13:10 10° NW visible
18 Nov 9.5 05:34:08 10° NE 05:36:45 20° E 05:39:22 10° SE visible
18 Nov 7.1 17:41:53 10° S 17:45:27 61° W 17:48:59 10° NNW visible
19 Nov 6.6 17:17:26 10° SSE 17:20:58 59° ENE 17:24:29 10° N visible
20 Nov 6.5 06:17:50 10° NNE 06:21:17 85° E 06:24:43 10° S visible
20 Nov 9.8 18:27:44 10° SW 18:30:02 16° W 18:32:20 10° NW visible
21 Nov 8.2 05:53:31 10° NNE 05:56:44 37° E 05:59:57 10° SSE visible
21 Nov 8.5 18:02:10 10° SSW 18:05:24 32° W 18:08:38 10° NNW visible
